Overview Statistics Trail Chart Weather Telemetry Raw packets
 

This is the latest recevied weather packets stored in our database for station/object ac2ev. If no packets are shown the sender has not sent any weather packets the latest 10 day(s).

<< 37 38 39 40 41 42 43 >>
Time Temp. Humidity Pressure Rain* Wind** Luminosity Snow
1788405943 21.11° C 90% 1011.3 hPa 0 mm - - -
1788405641 21.11° C 90% 1011.5 hPa 0 mm - - -
1788405351 21.11° C 90% 1011.6 hPa 0 mm - - -
1788405040 21.11° C 90% 1011.7 hPa 0 mm - - -
1788404740 21.11° C 90% 1011.8 hPa 0 mm - - -
1788404438 21.11° C 89% 1011.8 hPa 0.76 mm - - -
1788404139 21.11° C 89% 1011.7 hPa 0.76 mm - - -
1788403836 21.11° C 89% 1011.7 hPa 0.76 mm - - -
1788403535 21.11° C 89% 1011.8 hPa 0.76 mm - - -
1788403276 21.11° C 89% 1011.7 hPa 1.02 mm - - -
1788402933 21.11° C 89% 1011.9 hPa 1.27 mm - - -
1788402634 20.56° C 89% 1011.8 hPa 1.78 mm - - -
1788402333 20.56° C 89% 1012 hPa 1.78 mm - - -
1788402078 20.56° C 89% 1011.8 hPa 1.78 mm - - -
1788401732 20.56° C 89% 1012.1 hPa 1.78 mm - - -
1788401479 20.56° C 89% 1012.8 hPa 1.78 mm - - -
1788401132 20.56° C 89% 1013.1 hPa 2.03 mm - - -
1788400832 20.56° C 89% 1012.5 hPa 1.27 mm - - -
1788400532 20.56° C 89% 1011.7 hPa 1.27 mm - - -
1788400229 20.56° C 89% 1011.1 hPa 1.27 mm - - -
1788399924 20.56° C 89% 1011 hPa 1.52 mm - - -
1788399618 20.56° C 89% 1010.9 hPa 1.52 mm - - -
1788399311 20.56° C 89% 1011.1 hPa 1.52 mm - - -
1788399008 20.56° C 89% 1011.6 hPa 1.27 mm - - -
1788398754 20.56° C 89% 1012.3 hPa 1.78 mm - - -

* Rain latest hour (hover to see other rain measurements)
** Current wind speed in m/s (hover to see current wind gust speed)